owner,sensor,date,latitude,longitude,vertical_datum,direction_of_sea_water_velocity,sea_water_speed,upward_sea_water_velocity,qcFlag 
TABS,ioos:station:wmo:42046:1,2014-04-01T00:00:00Z,27.8903,-94.0367,2.0,24.76770728,5.27524407,-99999.0,'11133222,11111222,99999999' 
TABS,ioos:station:wmo:42046:1,2014-04-01T00:30:00Z,27.8903,-94.0367,2.0,71.75213055,8.718445962,-99999.0,'11133222,11111222,99999999' 
TABS,ioos:station:wmo:42046:1,2014-04-01T01:00:00Z,27.8903,-94.0367,2.0,31.42970258,1.687601849,-99999.0,'11133222,11111222,99999999' 
TABS,ioos:station:wmo:42046:1,2014-04-01T01:30:00Z,27.8903,-94.0367,2.0,78.69009397,4.946048928,-99999.0,'11133222,11111222,99999999' 
TABS,ioos:station:wmo:42046:1,2014-04-01T02:00:00Z,27.8903,-94.0367,2.0,55.3253393,1.775302791,-99999.0,'11133222,11111222,99999999' 
TABS,ioos:station:wmo:42046:1,2014-04-01T02:30:00Z,27.8903,-94.0367,2.0,37.8115849,4.746640918,-99999.0,'11133222,11111222,99999999' 
TABS,ioos:station:wmo:42046:1,2014-04-01T03:00:00Z,27.8903,-94.0367,2.0,21.55417998,4.300744122,-99999.0,'11133222,11111222,99999999' 
TABS,ioos:station:wmo:42046:1,2014-04-01T03:30:00Z,27.8903,-94.0367,2.0,11.31011649,2.141588196,-99999.0,'11133222,11111222,99999999' 
TABS,ioos:station:wmo:42046:1,2014-04-01T04:00:00Z,27.8903,-94.0367,2.0,258.0498498,1.931864384,-99999.0,'11133222,11111222,99999999' 
TABS,ioos:station:wmo:42046:1,2014-04-01T04:30:00Z,27.8903,-94.0367,2.0,282.7947904,5.14781507,-99999.0,'11133222,11111222,99999999' 
TABS,ioos:station:wmo:42046:1,2014-04-01T05:00:00Z,27.8903,-94.0367,2.0,133.6250632,0.884137998,-99999.0,'11133222,11111222,99999999' 
TABS,ioos:station:wmo:42046:1,2014-04-01T05:30:00Z,27.8903,-94.0367,2.0,355.6751601,2.386797017,-99999.0,'11133222,11111222,99999999' 
TABS,ioos:station:wmo:42046:1,2014-04-01T06:00:00Z,27.8903,-94.0367,2.0,351.8701271,0.070710678,-99999.0,'11133222,11111222,99999999' 
TABS,ioos:station:wmo:42046:1,2014-04-01T06:30:00Z,27.8903,-94.0367,2.0,273.4264481,4.518074811,-99999.0,'11133222,11111222,99999999' 
TABS,ioos:station:wmo:42046:1,2014-04-01T07:00:00Z,27.8903,-94.0367,2.0,286.529912,1.616817862,-99999.0,'11133222,11111222,99999999' 
TABS,ioos:station:wmo:42046:1,2014-04-01T07:30:00Z,27.8903,-94.0367,2.0,336.0053705,1.795132307,-99999.0,'11133222,11111222,99999999' 
TABS,ioos:station:wmo:42046:1,2014-04-01T08:00:00Z,27.8903,-94.0367,2.0,297.2716379,2.902636732,-99999.0,'11133222,11111222,99999999' 
TABS,ioos:station:wmo:42046:1,2014-04-01T08:30:00Z,27.8903,-94.0367,2.0,11.17402257,4.953907549,-99999.0,'11133222,11111222,99999999' 
TABS,ioos:station:wmo:42046:1,2014-04-01T09:00:00Z,27.8903,-94.0367,2.0,334.0579756,4.526068935,-99999.0,'11133222,11111222,99999999' 
TABS,ioos:station:wmo:42046:1,2014-04-01T09:30:00Z,27.8903,-94.0367,2.0,346.569213,2.755358416,-99999.0,'11133222,11111222,99999999' 
TABS,ioos:station:wmo:42046:1,2014-04-01T10:00:00Z,27.8903,-94.0367,2.0,337.5109933,3.712317336,-99999.0,'11133222,11111222,99999999' 
TABS,ioos:station:wmo:42046:1,2014-04-01T10:30:00Z,27.8903,-94.0367,2.0,339.1458012,1.573054354,-99999.0,'11133222,11111222,99999999' 
TABS,ioos:station:wmo:42046:1,2014-04-01T11:00:00Z,27.8903,-94.0367,2.0,58.80759196,1.718429516,-99999.0,'11133222,11111222,99999999' 
TABS,ioos:station:wmo:42046:1,2014-04-01T11:30:00Z,27.8903,-94.0367,2.0,47.64692461,2.909312634,-99999.0,'11133222,11111222,99999999' 
TABS,ioos:station:wmo:42046:1,2014-04-01T12:00:00Z,27.8903,-94.0367,2.0,75.34328316,0.671863081,-99999.0,'11133222,11111222,99999999' 
TABS,ioos:station:wmo:42046:1,2014-04-01T12:30:00Z,27.8903,-94.0367,2.0,340.7102093,2.966546814,-99999.0,'11133222,11111222,99999999' 
TABS,ioos:station:wmo:42046:1,2014-04-01T13:00:00Z,27.8903,-94.0367,2.0,42.83319561,1.309083649,-99999.0,'11133222,11111222,99999999' 
TABS,ioos:station:wmo:42046:1,2014-04-01T13:30:00Z,27.8903,-94.0367,2.0,45.64384944,2.517459036,-99999.0,'11133222,11111222,99999999' 
TABS,ioos:station:wmo:42046:1,2014-04-01T14:00:00Z,27.8903,-94.0367,2.0,28.38243061,3.807702719,-99999.0,'11133222,11111222,99999999' 
TABS,ioos:station:wmo:42046:1,2014-04-01T14:30:00Z,27.8903,-94.0367,2.0,73.50359152,5.141643706,-99999.0,'11133222,11111222,99999999' 
TABS,ioos:station:wmo:42046:1,2014-04-01T15:00:00Z,27.8903,-94.0367,2.0,47.48965233,2.767399501,-99999.0,'11133222,11111222,99999999' 
TABS,ioos:station:wmo:42046:1,2014-04-01T15:30:00Z,27.8903,-94.0367,2.0,43.98612888,3.196623218,-99999.0,'11133222,11111222,99999999' 
TABS,ioos:station:wmo:42046:1,2014-04-01T16:00:00Z,27.8903,-94.0367,2.0,33.05289906,2.493531632,-99999.0,'11133222,11111222,99999999' 
TABS,ioos:station:wmo:42046:1,2014-04-01T16:30:00Z,27.8903,-94.0367,2.0,27.73169174,7.908375307,-99999.0,'11133222,11111222,99999999' 
TABS,ioos:station:wmo:42046:1,2014-04-01T17:00:00Z,27.8903,-94.0367,2.0,39.31641218,2.998733066,-99999.0,'11133222,11111222,99999999' 
TABS,ioos:station:wmo:42046:1,2014-04-01T17:30:00Z,27.8903,-94.0367,2.0,47.95711964,5.345774032,-99999.0,'11133222,11111222,99999999' 
TABS,ioos:station:wmo:42046:1,2014-04-01T18:00:00Z,27.8903,-94.0367,2.0,28.30090005,9.449486759,-99999.0,'11133222,11111222,99999999' 
TABS,ioos:station:wmo:42046:1,2014-04-01T18:30:00Z,27.8903,-94.0367,2.0,37.68352621,7.606766724,-99999.0,'11133222,11111222,99999999' 
TABS,ioos:station:wmo:42046:1,2014-04-01T19:00:00Z,27.8903,-94.0367,2.0,44.58189627,11.62514516,-99999.0,'11111222,11111222,99999999' 
TABS,ioos:station:wmo:42046:1,2014-04-01T19:30:00Z,27.8903,-94.0367,2.0,54.68886913,9.411482349,-99999.0,'11133222,11111222,99999999' 
TABS,ioos:station:wmo:42046:1,2014-04-01T20:00:00Z,27.8903,-94.0367,2.0,50.45933191,12.18924116,-99999.0,'11111222,11111222,99999999' 
TABS,ioos:station:wmo:42046:1,2014-04-01T20:30:00Z,27.8903,-94.0367,2.0,64.98316502,12.74576793,-99999.0,'11111222,11111222,99999999' 
TABS,ioos:station:wmo:42046:1,2014-04-01T21:00:00Z,27.8903,-94.0367,2.0,52.38072433,16.51341273,-99999.0,'11111222,11111222,99999999' 
TABS,ioos:station:wmo:42046:1,2014-04-01T21:30:00Z,27.8903,-94.0367,2.0,60.86976183,10.29175398,-99999.0,'11111222,11111222,99999999' 
TABS,ioos:station:wmo:42046:1,2014-04-01T22:00:00Z,27.8903,-94.0367,2.0,87.64670864,11.68985885,-99999.0,'11111222,11111222,99999999' 
TABS,ioos:station:wmo:42046:1,2014-04-01T22:30:00Z,27.8903,-94.0367,2.0,93.62199001,14.0881404,-99999.0,'11111222,11111222,99999999' 
TABS,ioos:station:wmo:42046:1,2014-04-01T23:00:00Z,27.8903,-94.0367,2.0,85.48163644,10.28195507,-99999.0,'11111222,11111222,99999999' 
TABS,ioos:station:wmo:42046:1,2014-04-01T23:30:00Z,27.8903,-94.0367,2.0,85.1084776,10.78929562,-99999.0,'11111222,11111222,99999999' 
TABS,ioos:station:wmo:42046:1,2014-04-02T00:00:00Z,27.8903,-94.0367,2.0,100.857629,12.42238302,-99999.0,'11111222,11111222,99999999' 
TABS,ioos:station:wmo:42046:1,2014-04-02T00:30:00Z,27.8903,-94.0367,2.0,99.1007836,8.598238192,-99999.0,'11133222,11111222,99999999' 
TABS,ioos:station:wmo:42046:1,2014-04-02T01:00:00Z,27.8903,-94.0367,2.0,135.051466,7.855959521,-99999.0,'11133222,11111222,99999999' 
TABS,ioos:station:wmo:42046:1,2014-04-02T01:30:00Z,27.8903,-94.0367,2.0,110.7801743,9.273241073,-99999.0,'11133222,11111222,99999999' 
TABS,ioos:station:wmo:42046:1,2014-04-02T02:00:00Z,27.8903,-94.0367,2.0,113.4951745,6.847722249,-99999.0,'11133222,11111222,99999999' 
TABS,ioos:station:wmo:42046:1,2014-04-02T02:30:00Z,27.8903,-94.0367,2.0,106.3557789,2.876404005,-99999.0,'11133222,11111222,99999999' 
TABS,ioos:station:wmo:42046:1,2014-04-02T03:00:00Z,27.8903,-94.0367,2.0,33.84411595,4.129757862,-99999.0,'11133222,11111222,99999999' 
TABS,ioos:station:wmo:42046:1,2014-04-02T03:30:00Z,27.8903,-94.0367,2.0,19.53681971,0.657875368,-99999.0,'11133222,11111222,99999999' 
TABS,ioos:station:wmo:42046:1,2014-04-02T04:00:00Z,27.8903,-94.0367,2.0,351.2238574,2.8837649,-99999.0,'11133222,11111222,99999999' 
TABS,ioos:station:wmo:42046:1,2014-04-02T04:30:00Z,27.8903,-94.0367,2.0,25.78394368,4.919806907,-99999.0,'11133222,11111222,99999999' 
TABS,ioos:station:wmo:42046:1,2014-04-02T05:00:00Z,27.8903,-94.0367,2.0,43.38908989,4.52727291,-99999.0,'11133222,11111222,99999999' 
TABS,ioos:station:wmo:42046:1,2014-04-02T05:30:00Z,27.8903,-94.0367,2.0,344.789077,6.860349845,-99999.0,'11133222,11111222,99999999' 
TABS,ioos:station:wmo:42046:1,2014-04-02T06:00:00Z,27.8903,-94.0367,2.0,23.13001947,6.567952497,-99999.0,'11133222,11111222,99999999' 
TABS,ioos:station:wmo:42046:1,2014-04-02T06:30:00Z,27.8903,-94.0367,2.0,18.09742473,9.657763716,-99999.0,'11133222,11111222,99999999' 
TABS,ioos:station:wmo:42046:1,2014-04-02T07:00:00Z,27.8903,-94.0367,2.0,17.12781058,8.454968953,-99999.0,'11133222,11111222,99999999' 
TABS,ioos:station:wmo:42046:1,2014-04-02T07:30:00Z,27.8903,-94.0367,2.0,32.30198058,11.67709296,-99999.0,'11111222,11111222,99999999' 
TABS,ioos:station:wmo:42046:1,2014-04-02T08:00:00Z,27.8903,-94.0367,2.0,22.81295497,7.995429945,-99999.0,'11133222,11111222,99999999' 
TABS,ioos:station:wmo:42046:1,2014-04-02T08:30:00Z,27.8903,-94.0367,2.0,25.37666369,10.78016697,-99999.0,'11111222,11111222,99999999' 
TABS,ioos:station:wmo:42046:1,2014-04-02T09:00:00Z,27.8903,-94.0367,2.0,49.70502063,9.741401337,-99999.0,'11133222,11111222,99999999' 
TABS,ioos:station:wmo:42046:1,2014-04-02T09:30:00Z,27.8903,-94.0367,2.0,32.43858913,9.396089612,-99999.0,'11133222,11111222,99999999' 
TABS,ioos:station:wmo:42046:1,2014-04-02T10:00:00Z,27.8903,-94.0367,2.0,52.61789619,13.86855436,-99999.0,'11111222,11111222,99999999' 
TABS,ioos:station:wmo:42046:1,2014-04-02T10:30:00Z,27.8903,-94.0367,2.0,66.15283109,18.67428446,-99999.0,'11111222,11111222,99999999' 
TABS,ioos:station:wmo:42046:1,2014-04-02T11:00:00Z,27.8903,-94.0367,2.0,68.42253476,19.95868733,-99999.0,'11111222,11111222,99999999' 
TABS,ioos:station:wmo:42046:1,2014-04-02T11:30:00Z,27.8903,-94.0367,2.0,65.40090887,19.55474367,-99999.0,'11111222,11111222,99999999' 
TABS,ioos:station:wmo:42046:1,2014-04-02T12:00:00Z,27.8903,-94.0367,2.0,64.6730852,19.86986663,-99999.0,'11111222,11111222,99999999' 
TABS,ioos:station:wmo:42046:1,2014-04-02T12:30:00Z,27.8903,-94.0367,2.0,88.89989274,27.6050883,-99999.0,'11111222,11111222,99999999' 
TABS,ioos:station:wmo:42046:1,2014-04-02T13:00:00Z,27.8903,-94.0367,2.0,86.41011128,26.35170772,-99999.0,'11111222,11111222,99999999' 
TABS,ioos:station:wmo:42046:1,2014-04-02T13:30:00Z,27.8903,-94.0367,2.0,90.04282185,26.76000747,-99999.0,'11111222,11111222,99999999' 
TABS,ioos:station:wmo:42046:1,2014-04-02T14:00:00Z,27.8903,-94.0367,2.0,88.65915122,27.77760609,-99999.0,'11111222,11111222,99999999' 
TABS,ioos:station:wmo:42046:1,2014-04-02T14:30:00Z,27.8903,-94.0367,2.0,94.50727225,29.14012011,-99999.0,'11111222,11111222,99999999' 
TABS,ioos:station:wmo:42046:1,2014-04-02T15:00:00Z,27.8903,-94.0367,2.0,98.46530514,29.00601662,-99999.0,'11111222,11111222,99999999' 
TABS,ioos:station:wmo:42046:1,2014-04-02T15:30:00Z,27.8903,-94.0367,2.0,102.4721957,27.45798609,-99999.0,'11111222,11111222,99999999' 
TABS,ioos:station:wmo:42046:1,2014-04-02T16:00:00Z,27.8903,-94.0367,2.0,96.62159769,30.35247107,-99999.0,'11111222,11111222,99999999' 
TABS,ioos:station:wmo:42046:1,2014-04-02T16:30:00Z,27.8903,-94.0367,2.0,102.3607831,27.37457214,-99999.0,'11111222,11111222,99999999' 
TABS,ioos:station:wmo:42046:1,2014-04-02T17:00:00Z,27.8903,-94.0367,2.0,107.1190475,25.75089319,-99999.0,'11111222,11111222,99999999' 
TABS,ioos:station:wmo:42046:1,2014-04-02T17:30:00Z,27.8903,-94.0367,2.0,110.3335891,26.53342797,-99999.0,'11111222,11111222,99999999' 
TABS,ioos:station:wmo:42046:1,2014-04-02T18:00:00Z,27.8903,-94.0367,2.0,103.5537324,20.73753119,-99999.0,'11111222,11111222,99999999' 
TABS,ioos:station:wmo:42046:1,2014-04-02T18:30:00Z,27.8903,-94.0367,2.0,105.0136086,22.89141761,-99999.0,'11111222,11111222,99999999' 
TABS,ioos:station:wmo:42046:1,2014-04-02T19:00:00Z,27.8903,-94.0367,2.0,107.6250711,22.82127516,-99999.0,'11111222,11111222,99999999' 
TABS,ioos:station:wmo:42046:1,2014-04-02T19:30:00Z,27.8903,-94.0367,2.0,107.7665881,17.89338425,-99999.0,'11111222,11111222,99999999' 
TABS,ioos:station:wmo:42046:1,2014-04-02T20:00:00Z,27.8903,-94.0367,2.0,111.684203,16.34679479,-99999.0,'11111222,11111222,99999999' 
TABS,ioos:station:wmo:42046:1,2014-04-02T20:30:00Z,27.8903,-94.0367,2.0,116.3088254,12.00333287,-99999.0,'11111222,11111222,99999999' 
TABS,ioos:station:wmo:42046:1,2014-04-02T21:00:00Z,27.8903,-94.0367,2.0,113.1515855,14.42139036,-99999.0,'11111222,11111222,99999999' 
TABS,ioos:station:wmo:42046:1,2014-04-02T21:30:00Z,27.8903,-94.0367,2.0,76.94662875,13.14979087,-99999.0,'11111222,11111222,99999999' 
TABS,ioos:station:wmo:42046:1,2014-04-02T22:00:00Z,27.8903,-94.0367,2.0,98.57521259,10.193959,-99999.0,'11111222,11111222,99999999' 
TABS,ioos:station:wmo:42046:1,2014-04-02T22:30:00Z,27.8903,-94.0367,2.0,68.50614634,10.72591721,-99999.0,'11111222,11111222,99999999' 
TABS,ioos:station:wmo:42046:1,2014-04-02T23:00:00Z,27.8903,-94.0367,2.0,50.63077482,6.558239093,-99999.0,'11133222,11111222,99999999' 
TABS,ioos:station:wmo:42046:1,2014-04-02T23:30:00Z,27.8903,-94.0367,2.0,86.1080148,12.22820101,-99999.0,'11111222,11111222,99999999' 
TABS,ioos:station:wmo:42046:1,2014-04-03T00:00:00Z,27.8903,-94.0367,2.0,55.88197001,12.62255521,-99999.0,'11111222,11111222,99999999' 
TABS,ioos:station:wmo:42046:1,2014-04-03T00:30:00Z,27.8903,-94.0367,2.0,31.45125647,10.08105153,-99999.0,'11111222,11111222,99999999' 
TABS,ioos:station:wmo:42046:1,2014-04-03T01:00:00Z,27.8903,-94.0367,2.0,17.3518725,14.71987092,-99999.0,'11111222,11111222,99999999' 
TABS,ioos:station:wmo:42046:1,2014-04-03T01:30:00Z,27.8903,-94.0367,2.0,23.14512065,9.820412415,-99999.0,'11133222,11111222,99999999' 
TABS,ioos:station:wmo:42046:1,2014-04-03T02:00:00Z,27.8903,-94.0367,2.0,25.42756317,15.76738723,-99999.0,'11111222,11111222,99999999' 
TABS,ioos:station:wmo:42046:1,2014-04-03T02:30:00Z,27.8903,-94.0367,2.0,21.9574193,12.97086736,-99999.0,'11111222,11111222,99999999' 
TABS,ioos:station:wmo:42046:1,2014-04-03T03:00:00Z,27.8903,-94.0367,2.0,15.86555348,17.70442035,-99999.0,'11111222,11111222,99999999' 
TABS,ioos:station:wmo:42046:1,2014-04-03T03:30:00Z,27.8903,-94.0367,2.0,25.95488283,23.51135258,-99999.0,'11111222,11111222,99999999' 
TABS,ioos:station:wmo:42046:1,2014-04-03T04:00:00Z,27.8903,-94.0367,2.0,26.54482411,25.1512942,-99999.0,'11111222,11111222,99999999' 
TABS,ioos:station:wmo:42046:1,2014-04-03T04:30:00Z,27.8903,-94.0367,2.0,37.81055114,28.02377562,-99999.0,'11111222,11111222,99999999' 
TABS,ioos:station:wmo:42046:1,2014-04-03T05:00:00Z,27.8903,-94.0367,2.0,33.37776323,27.97394681,-99999.0,'11111222,11111222,99999999' 
TABS,ioos:station:wmo:42046:1,2014-04-03T05:30:00Z,27.8903,-94.0367,2.0,29.7575568,28.34813927,-99999.0,'11111222,11111222,99999999' 
TABS,ioos:station:wmo:42046:1,2014-04-03T06:00:00Z,27.8903,-94.0367,2.0,37.60611388,32.69269796,-99999.0,'11111222,11111222,99999999' 
TABS,ioos:station:wmo:42046:1,2014-04-03T06:30:00Z,27.8903,-94.0367,2.0,38.52822086,31.93137172,-99999.0,'11111222,11111222,99999999' 
TABS,ioos:station:wmo:42046:1,2014-04-03T07:00:00Z,27.8903,-94.0367,2.0,31.89505063,34.08641518,-99999.0,'11111222,11111222,99999999' 
TABS,ioos:station:wmo:42046:1,2014-04-03T07:30:00Z,27.8903,-94.0367,2.0,41.55103441,34.55526009,-99999.0,'11111222,11111222,99999999' 
TABS,ioos:station:wmo:42046:1,2014-04-03T08:00:00Z,27.8903,-94.0367,2.0,42.00145335,30.14280843,-99999.0,'11111222,11111222,99999999' 
TABS,ioos:station:wmo:42046:1,2014-04-03T08:30:00Z,27.8903,-94.0367,2.0,42.56125724,31.2399904,-99999.0,'11111222,11111222,99999999' 
TABS,ioos:station:wmo:42046:1,2014-04-03T09:00:00Z,27.8903,-94.0367,2.0,44.48414878,35.33555858,-99999.0,'11111222,11111222,99999999' 
TABS,ioos:station:wmo:42046:1,2014-04-03T09:30:00Z,27.8903,-94.0367,2.0,47.68387411,34.43143912,-99999.0,'11111222,11111222,99999999' 
TABS,ioos:station:wmo:42046:1,2014-04-03T10:00:00Z,27.8903,-94.0367,2.0,59.10042201,32.18858959,-99999.0,'11111222,11111222,99999999' 
TABS,ioos:station:wmo:42046:1,2014-04-03T10:30:00Z,27.8903,-94.0367,2.0,53.63362854,33.91530923,-99999.0,'11111222,11111222,99999999' 
TABS,ioos:station:wmo:42046:1,2014-04-03T11:00:00Z,27.8903,-94.0367,2.0,57.17993171,29.59389295,-99999.0,'11111222,11111222,99999999' 
TABS,ioos:station:wmo:42046:1,2014-04-03T11:30:00Z,27.8903,-94.0367,2.0,54.45242523,33.36888521,-99999.0,'11111222,11111222,99999999' 
TABS,ioos:station:wmo:42046:1,2014-04-03T12:00:00Z,27.8903,-94.0367,2.0,67.4169229,32.39385281,-99999.0,'11111222,11111222,99999999' 
TABS,ioos:station:wmo:42046:1,2014-04-03T12:30:00Z,27.8903,-94.0367,2.0,64.59030172,31.71836377,-99999.0,'11111222,11111222,99999999' 
TABS,ioos:station:wmo:42046:1,2014-04-03T13:00:00Z,27.8903,-94.0367,2.0,69.77714021,28.98690049,-99999.0,'11111222,11111222,99999999' 
TABS,ioos:station:wmo:42046:1,2014-04-03T13:30:00Z,27.8903,-94.0367,2.0,70.71946351,25.71211777,-99999.0,'11111222,11111222,99999999' 
TABS,ioos:station:wmo:42046:1,2014-04-03T14:00:00Z,27.8903,-94.0367,2.0,77.26517311,22.31903448,-99999.0,'11111222,11111222,99999999' 
TABS,ioos:station:wmo:42046:1,2014-04-03T14:30:00Z,27.8903,-94.0367,2.0,62.58493412,27.43062887,-99999.0,'11111222,11111222,99999999' 
TABS,ioos:station:wmo:42046:1,2014-04-03T15:00:00Z,27.8903,-94.0367,2.0,84.33255426,25.11275572,-99999.0,'11111222,11111222,99999999' 
TABS,ioos:station:wmo:42046:1,2014-04-03T15:30:00Z,27.8903,-94.0367,2.0,72.23154815,24.74017179,-99999.0,'11111222,11111222,99999999' 
TABS,ioos:station:wmo:42046:1,2014-04-03T16:00:00Z,27.8903,-94.0367,2.0,71.25151687,24.26768221,-99999.0,'11111222,11111222,99999999' 
TABS,ioos:station:wmo:42046:1,2014-04-03T16:30:00Z,27.8903,-94.0367,2.0,74.84407288,18.24458824,-99999.0,'11111222,11111222,99999999' 
TABS,ioos:station:wmo:42046:1,2014-04-03T17:00:00Z,27.8903,-94.0367,2.0,72.66679782,19.73626104,-99999.0,'11111222,11111222,99999999' 
TABS,ioos:station:wmo:42046:1,2014-04-03T17:30:00Z,27.8903,-94.0367,2.0,77.90345212,21.99845904,-99999.0,'11111222,11111222,99999999' 
TABS,ioos:station:wmo:42046:1,2014-04-03T18:00:00Z,27.8903,-94.0367,2.0,70.01098525,16.4404045,-99999.0,'11111222,11111222,99999999' 
TABS,ioos:station:wmo:42046:1,2014-04-03T18:30:00Z,27.8903,-94.0367,2.0,58.65103031,20.9130103,-99999.0,'11111222,11111222,99999999' 
TABS,ioos:station:wmo:42046:1,2014-04-03T19:00:00Z,27.8903,-94.0367,2.0,71.47279369,15.70389124,-99999.0,'11111222,11111222,99999999' 
TABS,ioos:station:wmo:42046:1,2014-04-03T19:30:00Z,27.8903,-94.0367,2.0,56.84002061,17.98969705,-99999.0,'11111222,11111222,99999999' 
TABS,ioos:station:wmo:42046:1,2014-04-03T20:00:00Z,27.8903,-94.0367,2.0,66.78501129,18.29098685,-99999.0,'11111222,11111222,99999999' 
TABS,ioos:station:wmo:42046:1,2014-04-03T20:30:00Z,27.8903,-94.0367,2.0,75.76150462,19.9220004,-99999.0,'11111222,11111222,99999999' 
TABS,ioos:station:wmo:42046:1,2014-04-03T21:00:00Z,27.8903,-94.0367,2.0,56.18149351,13.60128303,-99999.0,'11111222,11111222,99999999' 
TABS,ioos:station:wmo:42046:1,2014-04-03T21:30:00Z,27.8903,-94.0367,2.0,69.77663483,19.55556443,-99999.0,'11111222,11111222,99999999' 
TABS,ioos:station:wmo:42046:1,2014-04-03T22:00:00Z,27.8903,-94.0367,2.0,67.28410967,16.05540719,-99999.0,'11111222,11111222,99999999' 
TABS,ioos:station:wmo:42046:1,2014-04-03T22:30:00Z,27.8903,-94.0367,2.0,68.9206656,14.73609514,-99999.0,'11111222,11111222,99999999' 
TABS,ioos:station:wmo:42046:1,2014-04-03T23:00:00Z,27.8903,-94.0367,2.0,77.55714888,17.3577101,-99999.0,'11111222,11111222,99999999' 
TABS,ioos:station:wmo:42046:1,2014-04-03T23:30:00Z,27.8903,-94.0367,2.0,91.91680952,14.94836446,-99999.0,'11111222,11111222,99999999' 
TABS,ioos:station:wmo:42046:1,2014-04-04T00:00:00Z,27.8903,-94.0367,2.0,96.7849071,20.06049102,-99999.0,'11111222,11111222,99999999' 
TABS,ioos:station:wmo:42046:1,2014-04-04T00:30:00Z,27.8903,-94.0367,2.0,101.3306028,16.28744609,-99999.0,'11111222,11111222,99999999' 
TABS,ioos:station:wmo:42046:1,2014-04-04T01:00:00Z,27.8903,-94.0367,2.0,85.67062213,8.875325346,-99999.0,'11133222,11111222,99999999' 
TABS,ioos:station:wmo:42046:1,2014-04-04T01:30:00Z,27.8903,-94.0367,2.0,104.4593613,14.77809866,-99999.0,'11111222,11111222,99999999' 
TABS,ioos:station:wmo:42046:1,2014-04-04T02:00:00Z,27.8903,-94.0367,2.0,102.9274748,12.15816187,-99999.0,'11111222,11111222,99999999' 
TABS,ioos:station:wmo:42046:1,2014-04-04T02:30:00Z,27.8903,-94.0367,2.0,97.08423438,13.94646909,-99999.0,'11111222,11111222,99999999' 
TABS,ioos:station:wmo:42046:1,2014-04-04T03:00:00Z,27.8903,-94.0367,2.0,107.5712177,13.21665994,-99999.0,'11111222,11111222,99999999' 
TABS,ioos:station:wmo:42046:1,2014-04-04T03:30:00Z,27.8903,-94.0367,2.0,108.6929925,12.63658973,-99999.0,'11111222,11111222,99999999' 
TABS,ioos:station:wmo:42046:1,2014-04-04T04:00:00Z,27.8903,-94.0367,2.0,101.2162348,14.39494356,-99999.0,'11111222,11111222,99999999' 
TABS,ioos:station:wmo:42046:1,2014-04-04T04:30:00Z,27.8903,-94.0367,2.0,95.71057978,8.441895522,-99999.0,'11133222,11111222,99999999' 
TABS,ioos:station:wmo:42046:1,2014-04-04T05:00:00Z,27.8903,-94.0367,2.0,99.97989781,11.82898981,-99999.0,'11111222,11111222,99999999' 
TABS,ioos:station:wmo:42046:1,2014-04-04T05:30:00Z,27.8903,-94.0367,2.0,71.9211961,9.667269521,-99999.0,'11133222,11111222,99999999' 
TABS,ioos:station:wmo:42046:1,2014-04-04T06:00:00Z,27.8903,-94.0367,2.0,99.81276237,8.331896543,-99999.0,'11133222,11111222,99999999' 
TABS,ioos:station:wmo:42046:1,2014-04-04T06:30:00Z,27.8903,-94.0367,2.0,68.42497752,6.581094134,-99999.0,'11133222,11111222,99999999' 
TABS,ioos:station:wmo:42046:1,2014-04-04T07:00:00Z,27.8903,-94.0367,2.0,75.83903039,8.910779988,-99999.0,'11133222,11111222,99999999' 
TABS,ioos:station:wmo:42046:1,2014-04-04T07:30:00Z,27.8903,-94.0367,2.0,89.53545089,11.10036486,-99999.0,'11111222,11111222,99999999' 
TABS,ioos:station:wmo:42046:1,2014-04-04T08:00:00Z,27.8903,-94.0367,2.0,73.9316707,8.960050223,-99999.0,'11133222,11111222,99999999' 
TABS,ioos:station:wmo:42046:1,2014-04-04T08:30:00Z,27.8903,-94.0367,2.0,73.351219,11.97187538,-99999.0,'11111222,11111222,99999999' 
TABS,ioos:station:wmo:42046:1,2014-04-04T09:00:00Z,27.8903,-94.0367,2.0,46.80378073,10.10956478,-99999.0,'11111222,11111222,99999999' 
TABS,ioos:station:wmo:42046:1,2014-04-04T09:30:00Z,27.8903,-94.0367,2.0,68.4198858,15.3886874,-99999.0,'11111222,11111222,99999999' 
TABS,ioos:station:wmo:42046:1,2014-04-04T10:00:00Z,27.8903,-94.0367,2.0,70.3336289,15.30263376,-99999.0,'11111222,11111222,99999999' 
TABS,ioos:station:wmo:42046:1,2014-04-04T10:30:00Z,27.8903,-94.0367,2.0,69.57121322,13.17886566,-99999.0,'11111222,11111222,99999999' 
TABS,ioos:station:wmo:42046:1,2014-04-04T11:00:00Z,27.8903,-94.0367,2.0,92.4476315,16.62516767,-99999.0,'11111222,11111222,99999999' 
TABS,ioos:station:wmo:42046:1,2014-04-04T11:30:00Z,27.8903,-94.0367,2.0,96.19786314,15.56095434,-99999.0,'11111222,11111222,99999999' 
TABS,ioos:station:wmo:42046:1,2014-04-04T12:00:00Z,27.8903,-94.0367,2.0,103.2523017,16.66375708,-99999.0,'11111222,11111222,99999999' 
TABS,ioos:station:wmo:42046:1,2014-04-04T12:30:00Z,27.8903,-94.0367,2.0,109.1789632,17.28962984,-99999.0,'11111222,11111222,99999999' 
TABS,ioos:station:wmo:42046:1,2014-04-04T13:00:00Z,27.8903,-94.0367,2.0,116.5534885,22.28018178,-99999.0,'11111222,11111222,99999999' 
TABS,ioos:station:wmo:42046:1,2014-04-04T13:30:00Z,27.8903,-94.0367,2.0,110.2877052,20.2459996,-99999.0,'11111222,11111222,99999999' 
TABS,ioos:station:wmo:42046:1,2014-04-04T14:00:00Z,27.8903,-94.0367,2.0,115.3292003,20.94341185,-99999.0,'11111222,11111222,99999999' 
TABS,ioos:station:wmo:42046:1,2014-04-04T14:30:00Z,27.8903,-94.0367,2.0,121.0968762,21.3945063,-99999.0,'11111222,11111222,99999999' 
TABS,ioos:station:wmo:42046:1,2014-04-04T15:00:00Z,27.8903,-94.0367,2.0,121.5518188,16.87463481,-99999.0,'11111222,11111222,99999999' 
TABS,ioos:station:wmo:42046:1,2014-04-04T15:30:00Z,27.8903,-94.0367,2.0,128.1362189,21.53726074,-99999.0,'11111222,11111222,99999999' 
TABS,ioos:station:wmo:42046:1,2014-04-04T16:00:00Z,27.8903,-94.0367,2.0,127.4801692,18.58705463,-99999.0,'11111222,11111222,99999999' 